Location: Dos Palmas
(32.4468°N, 116.8732°W)
Time: 00:36:57
(UTC+00:00)

Cosmos 2084 Rocket - Pass Details

Date: 20 June 2021
Orbit: 517 x 662 km, 62.8° (Epoch: 01 August)

Event Time Altitude Azimuth Distance (km) Brightness Sun altitude
Exits shadow 10:18:10 37° 111° (ESE) 809 4.2 -23.8°
Drops below altitude 10° 10:21:40 10° 48° (NE) 1,752 7.0 -23.3°
Sets 10:23:58 0° 40° (NE) 2,652 8.3 -23.0°
